Defiance, OH

7:26 AM EDT on August 30, 2016 (GMT -0400)
Defiance Memorial

Weather History for KDFI - August, 2014

Change the Weather History Date:

Friday, August 29, 2014

  Actual Average Record
Temperature  
Mean Temperature 72 °F -  
Max Temperature 84 °F 81 °F 97 °F (1948)
Min Temperature 60 °F 58 °F 31 °F (1948)
Cooling Degree Days 7    
Growing Degree Days 22 (Base 50)    
Moisture  
Dew Point 59 °F    
Average Humidity 67    
Maximum Humidity 83    
Minimum Humidity 52    
Precipitation  
Precipitation 0.00 in - - ()
Sea Level Pressure  
Sea Level Pressure 30.06 in    
Wind  
Wind Speed 5 mph (SE)    
Max Wind Speed 8 mph    
Max Gust Speed -    
Visibility 10 miles    
Events      
Averages and records for this station are not official NWS values.
T = Trace of Precipitation, MM = Missing Value Source: NWS Daily Summary

Daily Weather History Graph

Daily Weather History Graph

Search for Another Location

Airport or City:

Trip Planner

Search our weather history database for the weather conditions in past years. The results will help you decide how hot, cold, wet, or windy it might be!

Date:

Astronomy

Aug. 29, 2014 Rise Set
Actual Time 7:01 AM EDT 8:15 PM EDT
Civil Twilight 6:32 AM EDT 8:43 PM EDT
Nautical Twilight 5:58 AM EDT 9:18 PM EDT
Astronomical Twilight 5:22 AM EDT 9:53 PM EDT
Moon 10:52 AM EDT (8/29) 10:09 PM EDT (8/29)
Length of Visible Light 14h 11m
Length of Day
13h 14m
Waxing Crescent, 15% of the Moon is Illuminated
Aug 29
Waxing Crescent
Sep 2
First Quarter
Sep 8
Full
Sep 15
Last Quarter
Sep 24
New

Hourly Weather History & Observations

Time (EDT) Temp. Heat Index Dew Point Humidity Pressure Visibility Wind Dir Wind Speed Gust Speed Precip Events Conditions
12:53 AM 62.1 °F - 55.9 °F 80% 30.12 in 10.0 mi ENE 4.6 mph - N/A   Clear
1:53 AM 61.0 °F - 55.0 °F 81% 30.12 in 10.0 mi East 4.6 mph - N/A   Clear
2:53 AM 60.1 °F - 55.0 °F 83% 30.09 in 10.0 mi East 4.6 mph - N/A   Clear
3:53 AM 60.1 °F - 54.0 °F 80% 30.09 in 10.0 mi ESE 4.6 mph - N/A   Clear
4:53 AM 60.1 °F - 53.1 °F 78% 30.09 in 10.0 mi ESE 4.6 mph - N/A   Clear
5:53 AM 60.1 °F - 54.0 °F 80% 30.09 in 10.0 mi ESE 4.6 mph - N/A   Clear
6:53 AM 61.0 °F - 55.0 °F 81% 30.11 in 10.0 mi Calm Calm - N/A   Clear
7:53 AM 62.1 °F - 54.0 °F 75% 30.11 in 10.0 mi ESE 5.8 mph - N/A   Clear
8:53 AM 63.0 °F - 54.0 °F 72% 30.12 in 10.0 mi ESE 4.6 mph - N/A   Partly Cloudy
9:53 AM 66.0 °F - 55.0 °F 68% 30.11 in 10.0 mi ESE 5.8 mph - N/A   Partly Cloudy
11:53 AM 75.0 °F - 57.9 °F 55% 30.10 in 10.0 mi SSE 8.1 mph - N/A   Clear
12:53 PM 78.1 °F - 60.1 °F 54% 30.08 in 10.0 mi South 8.1 mph - N/A   Clear
1:53 PM 81.0 °F 81.9 °F 62.1 °F 52% 30.06 in 10.0 mi SSE 8.1 mph - N/A   Partly Cloudy
2:53 PM 81.0 °F 81.9 °F 62.1 °F 52% 30.05 in 10.0 mi SSE 5.8 mph - N/A   Mostly Cloudy
4:53 PM 84.0 °F 85.8 °F 64.9 °F 53% 30.01 in 10.0 mi SE 5.8 mph - N/A   Clear
5:53 PM 82.9 °F 84.6 °F 64.9 °F 54% 30.01 in 10.0 mi SSE 5.8 mph - N/A   Overcast
6:53 PM 82.0 °F 84.1 °F 66.0 °F 58% 30.00 in 10.0 mi SE 4.6 mph - N/A   Scattered Clouds
7:53 PM 81.0 °F 82.7 °F 64.9 °F 58% 30.00 in 10.0 mi SSE 5.8 mph - N/A   Clear
8:53 PM 79.0 °F - 64.9 °F 62% 30.00 in 10.0 mi SE 6.9 mph - N/A   Clear
9:53 PM 77.0 °F - 64.9 °F 66% 30.00 in 10.0 mi SE 4.6 mph - N/A   Clear
11:53 PM 75.0 °F - 63.0 °F 66% 30.00 in 10.0 mi SE 6.9 mph - N/A   Scattered Clouds